Youngstown, OH

2:50 AM EST on December 09, 2019 (GMT -0500)
Youngstown-Warren Regional

Weather History for KYNG - September, 2019

Change the Weather History Date:

Monday, September 2, 2019

  Actual Average Record
Temperature  
Mean Temperature 68 °F 66 °F  
Max Temperature 77 °F 77 °F 96 °F (1953)
Min Temperature 60 °F 56 °F 41 °F (2001)
Degree Days  
Heating Degree Days 0 2  
Month to date heating degree days 0 4  
Since 1 July heating degree days 6 42  
Cooling Degree Days 4 3  
Month to date cooling degree days 9 6  
Year to date cooling degree days 673 492  
Growing Degree Days 18 (Base 50)    
Moisture  
Dew Point 62 °F    
Average Humidity 82    
Maximum Humidity 97    
Minimum Humidity 60    
Precipitation  
Precipitation T in 0.12 in 1.37 in (1993)
Month to date precipitation 0.67 0.24  
Year to date precipitation 35.19 26.46  
Snow  
Snow 0.00 in 0.00 in - ()
Month to date snowfall 0.0 0.0  
Since 1 July snowfall 0.0 0.0  
Since 1 September snowfall 0.0 0.0  
Snow Depth 0.00 in    
Sea Level Pressure  
Sea Level Pressure 30.05 in    
Wind  
Wind Speed 5 mph ()    
Max Wind Speed 13 mph    
Max Gust Speed 16 mph    
Visibility 6.5 miles    
Events Rain    
T = Trace of Precipitation, MM = Missing Value Source: Averaged Metar Reports

Daily Weather History Graph

Daily Weather History Graph

Search for Another Location

Airport or City:

Astronomy

Sep. 02, 2019 Rise Set
Actual Time 6:49 AM EDT 7:54 PM EDT
Civil Twilight 6:21 AM EDT 8:22 PM EDT
Nautical Twilight 5:47 AM EDT 8:56 PM EDT
Astronomical Twilight 5:12 AM EDT 9:31 PM EDT
Moon 10:32 AM EDT (9/2) 10:12 PM EDT (9/2)
Length of Visible Light 14h 00m
Length of Day
13h 04m
Waxing Crescent, 15% of the Moon is Illuminated
Sep 2
Waxing Crescent
Sep 5
First Quarter
Sep 14
Full
Sep 21
Last Quarter
Sep 28
New

Hourly Weather History & Observations

Time (EDT) Temp. Dew Point Humidity Pressure Visibility Wind Dir Wind Speed Gust Speed Precip Events Conditions
12:51 AM 66.0 °F 64.0 °F 93% 30.05 in 10.0 mi SE 6.9 mph - 0.03 in   Mostly Cloudy
1:51 AM 66.0 °F 64.0 °F 93% 30.05 in 10.0 mi South 5.8 mph - N/A   Overcast
2:51 AM 64.9 °F 63.0 °F 93% 30.04 in 5.0 mi South 4.6 mph - N/A   Mostly Cloudy
3:34 AM 64.9 °F 63.0 °F 93% 30.04 in 2.0 mi South 6.9 mph - N/A   Overcast
3:51 AM 66.0 °F 63.0 °F 90% 30.02 in 2.0 mi South 5.8 mph - N/A   Overcast
4:51 AM 66.0 °F 63.0 °F 90% 30.03 in 2.0 mi SW 8.1 mph - N/A   Overcast
5:51 AM 64.9 °F 63.0 °F 93% 30.04 in 2.0 mi WSW 5.8 mph - N/A   Overcast
6:51 AM 64.9 °F 63.0 °F 93% 30.04 in 2.0 mi SSW 3.5 mph - N/A   Overcast
7:34 AM 64.9 °F 62.1 °F 90% 30.07 in 1.0 mi West 8.1 mph - N/A   Overcast
7:51 AM 64.9 °F 62.1 °F 90% 30.05 in 1.5 mi West 5.8 mph - N/A   Overcast
8:45 AM 66.2 °F 62.6 °F 88% 30.07 in 2.0 mi SW 5.8 mph - N/A   Overcast
8:51 AM 66.0 °F 63.0 °F 90% 30.06 in 2.0 mi West 6.9 mph - N/A   Overcast
9:51 AM 66.9 °F 63.0 °F 87% 30.06 in 3.0 mi West 8.1 mph - N/A   Overcast
10:33 AM 68.0 °F 64.0 °F 87% 30.08 in 3.0 mi WSW 5.8 mph - N/A   Overcast
10:51 AM 68.0 °F 63.0 °F 84% 30.06 in 5.0 mi WSW 5.8 mph - N/A   Overcast
11:51 AM 69.1 °F 63.0 °F 81% 30.07 in 6.0 mi WNW 9.2 mph - N/A   Overcast
12:51 PM 70.0 °F 64.0 °F 81% 30.06 in 7.0 mi West 6.9 mph - N/A   Overcast
1:32 PM 69.1 °F 63.0 °F 81% 30.08 in 7.0 mi WNW 4.6 mph - 0.00 in Rain Light Rain
1:51 PM 70.0 °F 63.0 °F 78% 30.06 in 10.0 mi Calm Calm - 0.00 in   Mostly Cloudy
2:51 PM 73.9 °F 64.0 °F 71% 30.05 in 10.0 mi WNW 5.8 mph - N/A   Mostly Cloudy
3:20 PM 73.0 °F 63.0 °F 71% 30.06 in 10.0 mi NNW 9.2 mph - N/A   Mostly Cloudy
3:51 PM 75.0 °F 63.0 °F 66% 30.04 in 10.0 mi West 8.1 mph - N/A   Mostly Cloudy
4:39 PM 73.9 °F 61.0 °F 64% 30.05 in 10.0 mi North 10.4 mph - N/A   Mostly Cloudy
4:51 PM 77.0 °F 62.1 °F 60% 30.03 in 10.0 mi NW 5.8 mph - N/A   Scattered Clouds
5:51 PM 75.9 °F 61.0 °F 60% 30.04 in 10.0 mi WNW 8.1 mph - N/A   Scattered Clouds
6:51 PM 73.9 °F 60.1 °F 62% 30.04 in 10.0 mi NW 5.8 mph - N/A   Scattered Clouds
7:51 PM 69.1 °F 60.1 °F 73% 30.06 in 10.0 mi NW 5.8 mph - N/A   Mostly Cloudy
8:51 PM 64.9 °F 60.1 °F 84% 30.06 in 10.0 mi NNW 3.5 mph - N/A   Mostly Cloudy
9:51 PM 64.0 °F 60.1 °F 87% 30.07 in 10.0 mi Calm Calm - N/A   Mostly Cloudy
10:51 PM 61.0 °F 59.0 °F 93% 30.09 in 10.0 mi Calm Calm - N/A   Mostly Cloudy
11:51 PM 62.1 °F 59.0 °F 90% 30.08 in 10.0 mi ESE 3.5 mph - N/A   Overcast